245  
ASUS43 KTOP 310708  
RWRKS  
 
WEATHER ROUNDUP FOR KANSAS  
NATIONAL WEATHER SERVICE GOODLAND KS  
200 AM CDT SUN MAY 31 2020  
 
NOTE: "FAIR" INDICATES FEW OR NO CLOUDS BELOW 12,000 FEET WITH NO  
SIGNIFICANT WEATHER AND/OR S TO VISIBILITY
.  
 
KSZ001>006-013>018-027>032-041>047-310800-  
NORTHWEST KANSAS  
 
CITY SKY/WX TMP DP RH WIND PRES REMARKS
 
GOODLAND MOCLDY 70 51 51 SE20 30.04S  
HAYS CLOUDY 64 58 80 SE10 30.16R  
HILL CITY MOCLDY 66 54 65 SE9 30.10F  
RUSSELL CLOUDY 68 55 63 SE14 30.15R  

 
 
KSZ061>065-074>080-084>089-310800-  
SOUTHWEST KANSAS  
 
CITY SKY/WX TMP DP RH WIND PRES REMARKS
 
DODGE CITY MOCLDY 68 54 60 S22G30 30.11S  
ELKHART MOCLDY 73 54 50 S12 30.15R  
GARDEN CITY LGT RAIN 69 55 60 S17 30.11R  
GREAT BEND MOCLDY 67 54 63 SE13 30.14R  
LIBERAL MOCLDY 71 54 54 S21G28 30.13R  
PRATT CLEAR 67 49 52 S13 30.15R  

 
 
KSZ066>073-081>083-090>101-310800-  
SOUTHEAST KANSAS  
 
CITY SKY/WX TMP DP RH WIND PRES REMARKS
 
CHANUTE PTCLDY 67 55 65 E8 30.19F  
COFFEYVILLE CLEAR 64 59 83 NE5 30.17S  
HUTCHINSON CLEAR 66 56 70 SE8 30.14S  
MEDICINE LODGE N/A 68 51 54 S9G17 30.13F  
NEWTON CLEAR 65 58 78 SE13 30.17S  
PARSONS CLEAR 66 58 75 CALM 30.20S  
WICHITA INTL PTCLDY 67 56 67 SE9 30.15S  
WICHITA MCCONL CLOUDY 68 55 64 SE12 30.16S  
WINFIELD CLEAR 67 57 70 E5 30.17F  

 
 
KSZ007>012-019>026-033>040-048>060-102>105-310800-  
NORTHEAST KANSAS  
 
CITY SKY/WX TMP DP RH WIND PRES REMARKS
 
CONCORDIA PTCLDY 63 56 78 E8 30.18S  
EMPORIA PTCLDY 66 57 72 E7 30.19S  
LAWRENCE CLOUDY 63 56 78 E6 30.22F  
MANHATTAN PTCLDY 64 57 78 E7 30.19S  
MARYSVILLE MOCLDY 61 54 77 SE8 30.21R  
OLATHE IND CLOUDY 64 54 69 E6 30.23F  
OLATHE EXE CLOUDY 62 54 74 E5 30.23F  
SALINA PTCLDY 67 56 67 SE10 30.16R  
TOPEKA BILLARD MOCLDY 64 55 72 E7 30.20F  
TOPEKA FORBES CLEAR 64 57 78 E9 30.20F  

 
 
 
CLICK HERE TO GO TO PREVIOUS BULLETINS.

The Nexlab KS Page Main Text Page